owner,sensor,date,latitude,longitude,air_pressure(mBar),qcFlag 
TABS,ioos:station:wmo:42046:1,2010-08-19T20:00:00Z,27.8903,-94.0367,1013.8,11111222 
TABS,ioos:station:wmo:42046:1,2010-08-19T20:30:00Z,27.8903,-94.0367,1013.79,11111222 
TABS,ioos:station:wmo:42046:1,2010-08-19T21:00:00Z,27.8903,-94.0367,1013.6,11111222 
TABS,ioos:station:wmo:42046:1,2010-08-19T21:30:00Z,27.8903,-94.0367,1013.38,11111222 
TABS,ioos:station:wmo:42046:1,2010-08-19T22:00:00Z,27.8903,-94.0367,1013.49,11111222 
TABS,ioos:station:wmo:42046:1,2010-08-19T22:30:00Z,27.8903,-94.0367,1013.35,11111222 
TABS,ioos:station:wmo:42046:1,2010-08-19T23:00:00Z,27.8903,-94.0367,1013.16,11111222 
TABS,ioos:station:wmo:42046:1,2010-08-19T23:30:00Z,27.8903,-94.0367,1013.49,11111222 
TABS,ioos:station:wmo:42046:1,2010-08-20T00:00:00Z,27.8903,-94.0367,1013.37,11111222 
TABS,ioos:station:wmo:42046:1,2010-08-20T00:30:00Z,27.8903,-94.0367,1013.06,11111222 
TABS,ioos:station:wmo:42046:1,2010-08-20T01:00:00Z,27.8903,-94.0367,1012.95,11111222 
TABS,ioos:station:wmo:42046:1,2010-08-20T01:30:00Z,27.8903,-94.0367,1012.95,11111222 
TABS,ioos:station:wmo:42046:1,2010-08-20T02:00:00Z,27.8903,-94.0367,1013.28,11111222 
TABS,ioos:station:wmo:42046:1,2010-08-20T02:30:00Z,27.8903,-94.0367,1013.48,11111222 
TABS,ioos:station:wmo:42046:1,2010-08-20T03:00:00Z,27.8903,-94.0367,1013.4,11111222 
TABS,ioos:station:wmo:42046:1,2010-08-20T03:30:00Z,27.8903,-94.0367,1013.52,11111222 
TABS,ioos:station:wmo:42046:1,2010-08-20T04:00:00Z,27.8903,-94.0367,1013.48,11111222 
TABS,ioos:station:wmo:42046:1,2010-08-20T04:30:00Z,27.8903,-94.0367,1013.44,11111222 
TABS,ioos:station:wmo:42046:1,2010-08-20T05:00:00Z,27.8903,-94.0367,1013.1,11111222 
TABS,ioos:station:wmo:42046:1,2010-08-20T05:30:00Z,27.8903,-94.0367,1012.73,11111222 
TABS,ioos:station:wmo:42046:1,2010-08-20T06:00:00Z,27.8903,-94.0367,1012.7,11111222 
TABS,ioos:station:wmo:42046:1,2010-08-20T06:30:00Z,27.8903,-94.0367,1012.5,11111222 
TABS,ioos:station:wmo:42046:1,2010-08-20T07:00:00Z,27.8903,-94.0367,1012.11,11111222 
TABS,ioos:station:wmo:42046:1,2010-08-20T07:30:00Z,27.8903,-94.0367,1012.0,11111222 
TABS,ioos:station:wmo:42046:1,2010-08-20T08:00:00Z,27.8903,-94.0367,1012.08,11111222 
TABS,ioos:station:wmo:42046:1,2010-08-20T08:30:00Z,27.8903,-94.0367,1012.21,11111222 
TABS,ioos:station:wmo:42046:1,2010-08-20T09:00:00Z,27.8903,-94.0367,1012.17,11111222 
TABS,ioos:station:wmo:42046:1,2010-08-20T09:30:00Z,27.8903,-94.0367,1012.34,11111222 
TABS,ioos:station:wmo:42046:1,2010-08-20T10:00:00Z,27.8903,-94.0367,1012.35,11111222 
TABS,ioos:station:wmo:42046:1,2010-08-20T10:30:00Z,27.8903,-94.0367,1012.32,11111222 
TABS,ioos:station:wmo:42046:1,2010-08-20T11:00:00Z,27.8903,-94.0367,1012.4,11111222 
TABS,ioos:station:wmo:42046:1,2010-08-20T11:30:00Z,27.8903,-94.0367,1012.66,11111222 
TABS,ioos:station:wmo:42046:1,2010-08-20T12:00:00Z,27.8903,-94.0367,1012.92,11111222 
TABS,ioos:station:wmo:42046:1,2010-08-20T12:30:00Z,27.8903,-94.0367,1013.01,11111222 
TABS,ioos:station:wmo:42046:1,2010-08-20T13:00:00Z,27.8903,-94.0367,1013.31,11111222 
TABS,ioos:station:wmo:42046:1,2010-08-20T13:30:00Z,27.8903,-94.0367,1013.58,11111222 
TABS,ioos:station:wmo:42046:1,2010-08-20T14:00:00Z,27.8903,-94.0367,1013.94,11111222 
TABS,ioos:station:wmo:42046:1,2010-08-20T14:30:00Z,27.8903,-94.0367,1014.13,11111222 
TABS,ioos:station:wmo:42046:1,2010-08-20T15:00:00Z,27.8903,-94.0367,1014.28,11111222 
TABS,ioos:station:wmo:42046:1,2010-08-20T15:30:00Z,27.8903,-94.0367,1014.38,11111222 
TABS,ioos:station:wmo:42046:1,2010-08-20T16:00:00Z,27.8903,-94.0367,1014.57,11111222 
TABS,ioos:station:wmo:42046:1,2010-08-20T16:30:00Z,27.8903,-94.0367,1014.56,11111222 
TABS,ioos:station:wmo:42046:1,2010-08-20T17:00:00Z,27.8903,-94.0367,1014.57,11111222 
TABS,ioos:station:wmo:42046:1,2010-08-20T17:30:00Z,27.8903,-94.0367,1014.36,11111222 
TABS,ioos:station:wmo:42046:1,2010-08-20T18:00:00Z,27.8903,-94.0367,1014.16,11111222 
TABS,ioos:station:wmo:42046:1,2010-08-20T18:30:00Z,27.8903,-94.0367,1013.99,11111222 
TABS,ioos:station:wmo:42046:1,2010-08-20T19:00:00Z,27.8903,-94.0367,1013.74,11111222 
TABS,ioos:station:wmo:42046:1,2010-08-20T19:30:00Z,27.8903,-94.0367,1013.35,11111222 
TABS,ioos:station:wmo:42046:1,2010-08-20T20:00:00Z,27.8903,-94.0367,1013.25,11111222 
TABS,ioos:station:wmo:42046:1,2010-08-20T20:30:00Z,27.8903,-94.0367,1012.91,11111222 
TABS,ioos:station:wmo:42046:1,2010-08-20T21:00:00Z,27.8903,-94.0367,1012.87,11111222 
TABS,ioos:station:wmo:42046:1,2010-08-20T21:30:00Z,27.8903,-94.0367,1012.65,11111222 
TABS,ioos:station:wmo:42046:1,2010-08-20T22:00:00Z,27.8903,-94.0367,1012.66,11111222 
TABS,ioos:station:wmo:42046:1,2010-08-20T22:30:00Z,27.8903,-94.0367,1012.44,11111222 
TABS,ioos:station:wmo:42046:1,2010-08-20T23:00:00Z,27.8903,-94.0367,1012.32,11111222 
TABS,ioos:station:wmo:42046:1,2010-08-20T23:30:00Z,27.8903,-94.0367,1012.27,11111222 
TABS,ioos:station:wmo:42046:1,2010-08-21T00:00:00Z,27.8903,-94.0367,1012.41,11111222 
TABS,ioos:station:wmo:42046:1,2010-08-21T00:30:00Z,27.8903,-94.0367,1012.43,11111222 
TABS,ioos:station:wmo:42046:1,2010-08-21T01:00:00Z,27.8903,-94.0367,1012.63,11111222 
TABS,ioos:station:wmo:42046:1,2010-08-21T01:30:00Z,27.8903,-94.0367,1012.72,11111222 
TABS,ioos:station:wmo:42046:1,2010-08-21T02:00:00Z,27.8903,-94.0367,1012.9,11111222 
TABS,ioos:station:wmo:42046:1,2010-08-21T02:30:00Z,27.8903,-94.0367,1013.23,11111222 
TABS,ioos:station:wmo:42046:1,2010-08-21T03:00:00Z,27.8903,-94.0367,1013.19,11111222 
TABS,ioos:station:wmo:42046:1,2010-08-21T03:30:00Z,27.8903,-94.0367,1013.39,11111222 
TABS,ioos:station:wmo:42046:1,2010-08-21T04:00:00Z,27.8903,-94.0367,1013.43,11111222 
TABS,ioos:station:wmo:42046:1,2010-08-21T04:30:00Z,27.8903,-94.0367,1013.6,11111222 
TABS,ioos:station:wmo:42046:1,2010-08-21T05:00:00Z,27.8903,-94.0367,1013.59,11111222 
TABS,ioos:station:wmo:42046:1,2010-08-21T05:30:00Z,27.8903,-94.0367,1013.46,11111222 
TABS,ioos:station:wmo:42046:1,2010-08-21T06:00:00Z,27.8903,-94.0367,1013.21,11111222 
TABS,ioos:station:wmo:42046:1,2010-08-21T06:30:00Z,27.8903,-94.0367,1012.96,11111222 
TABS,ioos:station:wmo:42046:1,2010-08-21T07:00:00Z,27.8903,-94.0367,1012.68,11111222 
TABS,ioos:station:wmo:42046:1,2010-08-21T07:30:00Z,27.8903,-94.0367,1012.78,11111222 
TABS,ioos:station:wmo:42046:1,2010-08-21T08:00:00Z,27.8903,-94.0367,1012.97,11111222 
TABS,ioos:station:wmo:42046:1,2010-08-21T08:30:00Z,27.8903,-94.0367,1012.91,11111222 
TABS,ioos:station:wmo:42046:1,2010-08-21T09:00:00Z,27.8903,-94.0367,1012.96,11111222 
TABS,ioos:station:wmo:42046:1,2010-08-21T09:30:00Z,27.8903,-94.0367,1012.85,11111222 
TABS,ioos:station:wmo:42046:1,2010-08-21T10:00:00Z,27.8903,-94.0367,1013.11,11111222 
TABS,ioos:station:wmo:42046:1,2010-08-21T10:30:00Z,27.8903,-94.0367,1013.29,11111222 
TABS,ioos:station:wmo:42046:1,2010-08-21T11:00:00Z,27.8903,-94.0367,1013.34,11111222 
TABS,ioos:station:wmo:42046:1,2010-08-21T11:30:00Z,27.8903,-94.0367,1013.62,11111222 
TABS,ioos:station:wmo:42046:1,2010-08-21T12:00:00Z,27.8903,-94.0367,1014.22,11111222 
TABS,ioos:station:wmo:42046:1,2010-08-21T12:30:00Z,27.8903,-94.0367,1014.65,11111222 
TABS,ioos:station:wmo:42046:1,2010-08-21T13:00:00Z,27.8903,-94.0367,1014.84,11111222 
TABS,ioos:station:wmo:42046:1,2010-08-21T13:30:00Z,27.8903,-94.0367,1015.2,11111222 
TABS,ioos:station:wmo:42046:1,2010-08-21T14:00:00Z,27.8903,-94.0367,1015.71,11111222 
TABS,ioos:station:wmo:42046:1,2010-08-21T14:30:00Z,27.8903,-94.0367,1015.9,11111222 
TABS,ioos:station:wmo:42046:1,2010-08-21T15:00:00Z,27.8903,-94.0367,1016.13,11111222 
TABS,ioos:station:wmo:42046:1,2010-08-21T15:30:00Z,27.8903,-94.0367,1016.5,11111222 
TABS,ioos:station:wmo:42046:1,2010-08-21T16:00:00Z,27.8903,-94.0367,1016.31,11111222 
TABS,ioos:station:wmo:42046:1,2010-08-21T16:30:00Z,27.8903,-94.0367,1016.37,11111222 
TABS,ioos:station:wmo:42046:1,2010-08-21T17:00:00Z,27.8903,-94.0367,1016.38,11111222 
TABS,ioos:station:wmo:42046:1,2010-08-21T17:30:00Z,27.8903,-94.0367,1016.33,11111222 
TABS,ioos:station:wmo:42046:1,2010-08-21T18:00:00Z,27.8903,-94.0367,1016.38,11111222 
TABS,ioos:station:wmo:42046:1,2010-08-21T18:30:00Z,27.8903,-94.0367,1016.23,11111222 
TABS,ioos:station:wmo:42046:1,2010-08-21T19:00:00Z,27.8903,-94.0367,1015.84,11111222 
TABS,ioos:station:wmo:42046:1,2010-08-21T19:30:00Z,27.8903,-94.0367,1015.95,11111222 
TABS,ioos:station:wmo:42046:1,2010-08-21T20:00:00Z,27.8903,-94.0367,1015.84,11111222 
TABS,ioos:station:wmo:42046:1,2010-08-21T20:30:00Z,27.8903,-94.0367,1015.65,11111222 
TABS,ioos:station:wmo:42046:1,2010-08-21T21:00:00Z,27.8903,-94.0367,1015.3,11111222 
TABS,ioos:station:wmo:42046:1,2010-08-21T21:30:00Z,27.8903,-94.0367,1015.26,11111222 
TABS,ioos:station:wmo:42046:1,2010-08-21T22:00:00Z,27.8903,-94.0367,1015.17,11111222 
TABS,ioos:station:wmo:42046:1,2010-08-21T22:30:00Z,27.8903,-94.0367,1015.05,11111222 
TABS,ioos:station:wmo:42046:1,2010-08-21T23:00:00Z,27.8903,-94.0367,1015.22,11111222 
TABS,ioos:station:wmo:42046:1,2010-08-21T23:30:00Z,27.8903,-94.0367,1015.42,11111222 
TABS,ioos:station:wmo:42046:1,2010-08-22T00:00:00Z,27.8903,-94.0367,1015.38,11111222 
TABS,ioos:station:wmo:42046:1,2010-08-22T00:30:00Z,27.8903,-94.0367,1015.5,11111222 
TABS,ioos:station:wmo:42046:1,2010-08-22T01:00:00Z,27.8903,-94.0367,1015.61,11111222 
TABS,ioos:station:wmo:42046:1,2010-08-22T01:30:00Z,27.8903,-94.0367,1015.75,11111222 
TABS,ioos:station:wmo:42046:1,2010-08-22T02:00:00Z,27.8903,-94.0367,1015.85,11111222 
TABS,ioos:station:wmo:42046:1,2010-08-22T02:30:00Z,27.8903,-94.0367,1016.05,11111222 
TABS,ioos:station:wmo:42046:1,2010-08-22T03:00:00Z,27.8903,-94.0367,1016.22,11111222 
TABS,ioos:station:wmo:42046:1,2010-08-22T03:30:00Z,27.8903,-94.0367,1016.33,11111222 
TABS,ioos:station:wmo:42046:1,2010-08-22T04:00:00Z,27.8903,-94.0367,1016.35,11111222 
TABS,ioos:station:wmo:42046:1,2010-08-22T04:30:00Z,27.8903,-94.0367,1016.31,11111222 
TABS,ioos:station:wmo:42046:1,2010-08-22T05:00:00Z,27.8903,-94.0367,1016.23,11111222 
TABS,ioos:station:wmo:42046:1,2010-08-22T05:30:00Z,27.8903,-94.0367,1016.11,11111222 
TABS,ioos:station:wmo:42046:1,2010-08-22T06:00:00Z,27.8903,-94.0367,1015.97,11111222 
TABS,ioos:station:wmo:42046:1,2010-08-22T06:30:00Z,27.8903,-94.0367,1015.8,11111222 
TABS,ioos:station:wmo:42046:1,2010-08-22T07:00:00Z,27.8903,-94.0367,1015.6,11111222 
TABS,ioos:station:wmo:42046:1,2010-08-22T07:30:00Z,27.8903,-94.0367,1015.3,11111222 
TABS,ioos:station:wmo:42046:1,2010-08-22T08:00:00Z,27.8903,-94.0367,1014.93,11111222 
TABS,ioos:station:wmo:42046:1,2010-08-22T08:30:00Z,27.8903,-94.0367,1014.94,11111222 
TABS,ioos:station:wmo:42046:1,2010-08-22T09:00:00Z,27.8903,-94.0367,1014.94,11111222 
TABS,ioos:station:wmo:42046:1,2010-08-22T09:30:00Z,27.8903,-94.0367,1015.08,11111222 
TABS,ioos:station:wmo:42046:1,2010-08-22T10:00:00Z,27.8903,-94.0367,1015.37,11111222 
TABS,ioos:station:wmo:42046:1,2010-08-22T10:30:00Z,27.8903,-94.0367,1015.42,11111222 
TABS,ioos:station:wmo:42046:1,2010-08-22T11:00:00Z,27.8903,-94.0367,1015.9,11111222 
TABS,ioos:station:wmo:42046:1,2010-08-22T11:30:00Z,27.8903,-94.0367,1016.15,11111222 
TABS,ioos:station:wmo:42046:1,2010-08-22T12:00:00Z,27.8903,-94.0367,1016.44,11111222 
TABS,ioos:station:wmo:42046:1,2010-08-22T12:30:00Z,27.8903,-94.0367,1016.53,11111222 
TABS,ioos:station:wmo:42046:1,2010-08-22T13:00:00Z,27.8903,-94.0367,1016.9,11111222 
TABS,ioos:station:wmo:42046:1,2010-08-22T13:30:00Z,27.8903,-94.0367,1017.21,11111222 
TABS,ioos:station:wmo:42046:1,2010-08-22T14:00:00Z,27.8903,-94.0367,1017.05,11111222 
TABS,ioos:station:wmo:42046:1,2010-08-22T14:30:00Z,27.8903,-94.0367,1017.24,11111222 
TABS,ioos:station:wmo:42046:1,2010-08-22T15:00:00Z,27.8903,-94.0367,1017.6,11111222 
TABS,ioos:station:wmo:42046:1,2010-08-22T15:30:00Z,27.8903,-94.0367,1017.81,11111222 
TABS,ioos:station:wmo:42046:1,2010-08-22T16:00:00Z,27.8903,-94.0367,1017.7,11111222 
TABS,ioos:station:wmo:42046:1,2010-08-22T16:30:00Z,27.8903,-94.0367,1017.67,11111222 
TABS,ioos:station:wmo:42046:1,2010-08-22T17:00:00Z,27.8903,-94.0367,1017.47,11111222 
TABS,ioos:station:wmo:42046:1,2010-08-22T17:30:00Z,27.8903,-94.0367,1017.36,11111222 
TABS,ioos:station:wmo:42046:1,2010-08-22T18:00:00Z,27.8903,-94.0367,1017.07,11111222 
TABS,ioos:station:wmo:42046:1,2010-08-22T18:30:00Z,27.8903,-94.0367,1016.56,11111222 
TABS,ioos:station:wmo:42046:1,2010-08-22T19:00:00Z,27.8903,-94.0367,1016.22,11111222 
TABS,ioos:station:wmo:42046:1,2010-08-22T19:30:00Z,27.8903,-94.0367,1015.94,11111222 
TABS,ioos:station:wmo:42046:1,2010-08-22T20:00:00Z,27.8903,-94.0367,1015.66,11111222 
TABS,ioos:station:wmo:42046:1,2010-08-22T20:30:00Z,27.8903,-94.0367,1015.56,11111222 
TABS,ioos:station:wmo:42046:1,2010-08-22T21:00:00Z,27.8903,-94.0367,1015.26,11111222 
TABS,ioos:station:wmo:42046:1,2010-08-22T21:30:00Z,27.8903,-94.0367,1014.81,11111222 
TABS,ioos:station:wmo:42046:1,2010-08-22T22:00:00Z,27.8903,-94.0367,1014.66,11111222 
TABS,ioos:station:wmo:42046:1,2010-08-22T22:30:00Z,27.8903,-94.0367,1014.57,11111222 
TABS,ioos:station:wmo:42046:1,2010-08-22T23:00:00Z,27.8903,-94.0367,1014.27,11111222 
TABS,ioos:station:wmo:42046:1,2010-08-22T23:30:00Z,27.8903,-94.0367,1014.07,11111222 
TABS,ioos:station:wmo:42046:1,2010-08-23T00:00:00Z,27.8903,-94.0367,1013.85,11111222 
TABS,ioos:station:wmo:42046:1,2010-08-23T00:30:00Z,27.8903,-94.0367,1013.59,11111222 
TABS,ioos:station:wmo:42046:1,2010-08-23T01:00:00Z,27.8903,-94.0367,1013.61,11111222 
TABS,ioos:station:wmo:42046:1,2010-08-23T01:30:00Z,27.8903,-94.0367,1014.05,11111222 
TABS,ioos:station:wmo:42046:1,2010-08-23T02:00:00Z,27.8903,-94.0367,1014.14,11111222 
TABS,ioos:station:wmo:42046:1,2010-08-23T02:30:00Z,27.8903,-94.0367,1014.42,11111222 
TABS,ioos:station:wmo:42046:1,2010-08-23T03:00:00Z,27.8903,-94.0367,1014.49,11111222 
TABS,ioos:station:wmo:42046:1,2010-08-23T03:30:00Z,27.8903,-94.0367,1014.49,11111222 
TABS,ioos:station:wmo:42046:1,2010-08-23T04:00:00Z,27.8903,-94.0367,1014.35,11111222 
TABS,ioos:station:wmo:42046:1,2010-08-23T04:30:00Z,27.8903,-94.0367,1014.15,11111222 
TABS,ioos:station:wmo:42046:1,2010-08-23T05:00:00Z,27.8903,-94.0367,1013.94,11111222 
TABS,ioos:station:wmo:42046:1,2010-08-23T05:30:00Z,27.8903,-94.0367,1013.96,11111222 
TABS,ioos:station:wmo:42046:1,2010-08-23T06:00:00Z,27.8903,-94.0367,1013.64,11111222 
TABS,ioos:station:wmo:42046:1,2010-08-23T06:30:00Z,27.8903,-94.0367,1013.24,11111222 
TABS,ioos:station:wmo:42046:1,2010-08-23T07:00:00Z,27.8903,-94.0367,1012.83,11111222 
TABS,ioos:station:wmo:42046:1,2010-08-23T07:30:00Z,27.8903,-94.0367,1012.95,11111222 
TABS,ioos:station:wmo:42046:1,2010-08-23T08:00:00Z,27.8903,-94.0367,1012.74,11111222 
TABS,ioos:station:wmo:42046:1,2010-08-23T08:30:00Z,27.8903,-94.0367,1012.31,11111222 
TABS,ioos:station:wmo:42046:1,2010-08-23T09:00:00Z,27.8903,-94.0367,1012.24,11111222 
TABS,ioos:station:wmo:42046:1,2010-08-23T09:30:00Z,27.8903,-94.0367,1012.13,11111222 
TABS,ioos:station:wmo:42046:1,2010-08-23T10:00:00Z,27.8903,-94.0367,1012.32,11111222 
TABS,ioos:station:wmo:42046:1,2010-08-23T10:30:00Z,27.8903,-94.0367,1012.65,11111222 
TABS,ioos:station:wmo:42046:1,2010-08-23T11:00:00Z,27.8903,-94.0367,1012.74,11111222 
TABS,ioos:station:wmo:42046:1,2010-08-23T11:30:00Z,27.8903,-94.0367,1012.6,11111222 
TABS,ioos:station:wmo:42046:1,2010-08-23T12:00:00Z,27.8903,-94.0367,1012.98,11111222 
TABS,ioos:station:wmo:42046:1,2010-08-23T12:30:00Z,27.8903,-94.0367,1013.23,11111222 
TABS,ioos:station:wmo:42046:1,2010-08-23T13:00:00Z,27.8903,-94.0367,1013.17,11111222 
TABS,ioos:station:wmo:42046:1,2010-08-23T13:30:00Z,27.8903,-94.0367,1013.14,11111222 
TABS,ioos:station:wmo:42046:1,2010-08-23T14:00:00Z,27.8903,-94.0367,1012.93,11111222 
TABS,ioos:station:wmo:42046:1,2010-08-23T14:30:00Z,27.8903,-94.0367,1013.47,11111222 
TABS,ioos:station:wmo:42046:1,2010-08-23T15:00:00Z,27.8903,-94.0367,1013.55,11111222 
TABS,ioos:station:wmo:42046:1,2010-08-23T15:30:00Z,27.8903,-94.0367,1014.03,11111222 
TABS,ioos:station:wmo:42046:1,2010-08-23T16:00:00Z,27.8903,-94.0367,1014.19,11111222 
TABS,ioos:station:wmo:42046:1,2010-08-23T16:30:00Z,27.8903,-94.0367,1014.22,11111222 
TABS,ioos:station:wmo:42046:1,2010-08-23T17:00:00Z,27.8903,-94.0367,1013.71,11111222 
TABS,ioos:station:wmo:42046:1,2010-08-23T17:30:00Z,27.8903,-94.0367,1013.41,11111222 
TABS,ioos:station:wmo:42046:1,2010-08-23T18:00:00Z,27.8903,-94.0367,1013.61,11111222 
TABS,ioos:station:wmo:42046:1,2010-08-23T18:30:00Z,27.8903,-94.0367,1013.37,11111222 
TABS,ioos:station:wmo:42046:1,2010-08-23T19:00:00Z,27.8903,-94.0367,1013.24,11111222 
TABS,ioos:station:wmo:42046:1,2010-08-23T19:30:00Z,27.8903,-94.0367,1012.97,11111222 
TABS,ioos:station:wmo:42046:1,2010-08-23T20:00:00Z,27.8903,-94.0367,1012.47,11111222 
TABS,ioos:station:wmo:42046:1,2010-08-23T20:30:00Z,27.8903,-94.0367,1012.35,11111222 
TABS,ioos:station:wmo:42046:1,2010-08-23T21:00:00Z,27.8903,-94.0367,1012.06,11111222 
TABS,ioos:station:wmo:42046:1,2010-08-23T21:30:00Z,27.8903,-94.0367,1011.97,11111222 
TABS,ioos:station:wmo:42046:1,2010-08-23T22:00:00Z,27.8903,-94.0367,1011.57,11111222 
TABS,ioos:station:wmo:42046:1,2010-08-23T22:30:00Z,27.8903,-94.0367,1011.09,11111222 
TABS,ioos:station:wmo:42046:1,2010-08-23T23:00:00Z,27.8903,-94.0367,1010.94,11111222 
TABS,ioos:station:wmo:42046:1,2010-08-23T23:30:00Z,27.8903,-94.0367,1010.78,11111222 
TABS,ioos:station:wmo:42046:1,2010-08-24T00:00:00Z,27.8903,-94.0367,1010.87,11111222 
TABS,ioos:station:wmo:42046:1,2010-08-24T00:30:00Z,27.8903,-94.0367,1010.63,11111222 
TABS,ioos:station:wmo:42046:1,2010-08-24T01:00:00Z,27.8903,-94.0367,1010.69,11111222 
TABS,ioos:station:wmo:42046:1,2010-08-24T01:30:00Z,27.8903,-94.0367,1010.51,11111222 
TABS,ioos:station:wmo:42046:1,2010-08-24T02:00:00Z,27.8903,-94.0367,1010.63,11111222 
TABS,ioos:station:wmo:42046:1,2010-08-24T02:30:00Z,27.8903,-94.0367,1010.81,11111222 
TABS,ioos:station:wmo:42046:1,2010-08-24T03:00:00Z,27.8903,-94.0367,1011.06,11111222 
TABS,ioos:station:wmo:42046:1,2010-08-24T03:30:00Z,27.8903,-94.0367,1011.15,11111222 
TABS,ioos:station:wmo:42046:1,2010-08-24T04:00:00Z,27.8903,-94.0367,1010.94,11111222 
TABS,ioos:station:wmo:42046:1,2010-08-24T04:30:00Z,27.8903,-94.0367,1010.84,11111222 
TABS,ioos:station:wmo:42046:1,2010-08-24T05:00:00Z,27.8903,-94.0367,1010.51,11111222 
TABS,ioos:station:wmo:42046:1,2010-08-24T05:30:00Z,27.8903,-94.0367,1010.39,11111222 
TABS,ioos:station:wmo:42046:1,2010-08-24T06:00:00Z,27.8903,-94.0367,1010.27,11111222 
TABS,ioos:station:wmo:42046:1,2010-08-24T06:30:00Z,27.8903,-94.0367,1010.28,11111222 
TABS,ioos:station:wmo:42046:1,2010-08-24T07:00:00Z,27.8903,-94.0367,1010.25,11111222 
TABS,ioos:station:wmo:42046:1,2010-08-24T07:30:00Z,27.8903,-94.0367,1010.11,11111222 
TABS,ioos:station:wmo:42046:1,2010-08-24T08:00:00Z,27.8903,-94.0367,1009.64,11111222 
TABS,ioos:station:wmo:42046:1,2010-08-24T08:30:00Z,27.8903,-94.0367,1009.72,11111222 
TABS,ioos:station:wmo:42046:1,2010-08-24T09:00:00Z,27.8903,-94.0367,1009.78,11111222 
TABS,ioos:station:wmo:42046:1,2010-08-24T09:30:00Z,27.8903,-94.0367,1010.01,11111222 
TABS,ioos:station:wmo:42046:1,2010-08-24T10:00:00Z,27.8903,-94.0367,1010.24,11111222 
TABS,ioos:station:wmo:42046:1,2010-08-24T10:30:00Z,27.8903,-94.0367,1010.08,11111222 
TABS,ioos:station:wmo:42046:1,2010-08-24T11:00:00Z,27.8903,-94.0367,1010.13,11111222 
TABS,ioos:station:wmo:42046:1,2010-08-24T11:30:00Z,27.8903,-94.0367,1010.43,11111222 
TABS,ioos:station:wmo:42046:1,2010-08-24T12:00:00Z,27.8903,-94.0367,1010.51,11111222 
TABS,ioos:station:wmo:42046:1,2010-08-24T12:30:00Z,27.8903,-94.0367,1010.63,11111222 
TABS,ioos:station:wmo:42046:1,2010-08-24T13:00:00Z,27.8903,-94.0367,1010.86,11111222 
TABS,ioos:station:wmo:42046:1,2010-08-24T13:30:00Z,27.8903,-94.0367,1010.54,11111222 
TABS,ioos:station:wmo:42046:1,2010-08-24T14:00:00Z,27.8903,-94.0367,1010.53,11111222 
TABS,ioos:station:wmo:42046:1,2010-08-24T14:30:00Z,27.8903,-94.0367,1011.03,11111222 
TABS,ioos:station:wmo:42046:1,2010-08-24T15:00:00Z,27.8903,-94.0367,1011.12,11111222 
TABS,ioos:station:wmo:42046:1,2010-08-24T15:30:00Z,27.8903,-94.0367,1011.83,11111222 
TABS,ioos:station:wmo:42046:1,2010-08-24T16:00:00Z,27.8903,-94.0367,1011.64,11111222 
TABS,ioos:station:wmo:42046:1,2010-08-24T16:30:00Z,27.8903,-94.0367,1011.8,11111222 
TABS,ioos:station:wmo:42046:1,2010-08-24T17:00:00Z,27.8903,-94.0367,1012.12,11111222 
TABS,ioos:station:wmo:42046:1,2010-08-24T17:30:00Z,27.8903,-94.0367,1012.04,11111222 
TABS,ioos:station:wmo:42046:1,2010-08-24T18:00:00Z,27.8903,-94.0367,1012.42,11111222 
TABS,ioos:station:wmo:42046:1,2010-08-24T18:30:00Z,27.8903,-94.0367,1012.99,11111222 
TABS,ioos:station:wmo:42046:1,2010-08-24T19:00:00Z,27.8903,-94.0367,1012.5,11111222 
TABS,ioos:station:wmo:42046:1,2010-08-24T19:30:00Z,27.8903,-94.0367,1012.51,11111222 
TABS,ioos:station:wmo:42046:1,2010-08-24T20:00:00Z,27.8903,-94.0367,1011.83,11111222 
TABS,ioos:station:wmo:42046:1,2010-08-24T20:30:00Z,27.8903,-94.0367,1010.59,11111222 
TABS,ioos:station:wmo:42046:1,2010-08-24T21:00:00Z,27.8903,-94.0367,1010.24,11111222 
TABS,ioos:station:wmo:42046:1,2010-08-24T21:30:00Z,27.8903,-94.0367,1009.85,11111222 
TABS,ioos:station:wmo:42046:1,2010-08-24T22:00:00Z,27.8903,-94.0367,1009.45,11111222 
TABS,ioos:station:wmo:42046:1,2010-08-24T22:30:00Z,27.8903,-94.0367,1009.38,11111222 
TABS,ioos:station:wmo:42046:1,2010-08-24T23:00:00Z,27.8903,-94.0367,1009.74,11111222 
TABS,ioos:station:wmo:42046:1,2010-08-24T23:30:00Z,27.8903,-94.0367,1009.64,11111222 
TABS,ioos:station:wmo:42046:1,2010-08-25T00:00:00Z,27.8903,-94.0367,1009.77,11111222 
TABS,ioos:station:wmo:42046:1,2010-08-25T00:30:00Z,27.8903,-94.0367,1010.03,11111222 
TABS,ioos:station:wmo:42046:1,2010-08-25T01:00:00Z,27.8903,-94.0367,1010.16,11111222 
TABS,ioos:station:wmo:42046:1,2010-08-25T01:30:00Z,27.8903,-94.0367,1010.27,11111222 
TABS,ioos:station:wmo:42046:1,2010-08-25T02:00:00Z,27.8903,-94.0367,1010.58,11111222 
TABS,ioos:station:wmo:42046:1,2010-08-25T02:30:00Z,27.8903,-94.0367,1010.82,11111222 
TABS,ioos:station:wmo:42046:1,2010-08-25T03:00:00Z,27.8903,-94.0367,1011.27,11111222 
TABS,ioos:station:wmo:42046:1,2010-08-25T03:30:00Z,27.8903,-94.0367,1011.59,11111222 
TABS,ioos:station:wmo:42046:1,2010-08-25T04:00:00Z,27.8903,-94.0367,1011.59,11111222 
TABS,ioos:station:wmo:42046:1,2010-08-25T04:30:00Z,27.8903,-94.0367,1011.56,11111222 
TABS,ioos:station:wmo:42046:1,2010-08-25T05:00:00Z,27.8903,-94.0367,1011.65,11111222 
TABS,ioos:station:wmo:42046:1,2010-08-25T05:30:00Z,27.8903,-94.0367,1011.53,11111222 
TABS,ioos:station:wmo:42046:1,2010-08-25T06:00:00Z,27.8903,-94.0367,1011.37,11111222 
TABS,ioos:station:wmo:42046:1,2010-08-25T06:30:00Z,27.8903,-94.0367,1011.31,11111222 
TABS,ioos:station:wmo:42046:1,2010-08-25T07:00:00Z,27.8903,-94.0367,1011.55,11111222 
TABS,ioos:station:wmo:42046:1,2010-08-25T07:30:00Z,27.8903,-94.0367,1011.32,11111222 
TABS,ioos:station:wmo:42046:1,2010-08-25T08:00:00Z,27.8903,-94.0367,1010.94,11111222 
TABS,ioos:station:wmo:42046:1,2010-08-25T08:30:00Z,27.8903,-94.0367,1011.19,11111222 
TABS,ioos:station:wmo:42046:1,2010-08-25T09:00:00Z,27.8903,-94.0367,1011.4,11111222 
TABS,ioos:station:wmo:42046:1,2010-08-25T09:30:00Z,27.8903,-94.0367,1011.5,11111222 
TABS,ioos:station:wmo:42046:1,2010-08-25T10:00:00Z,27.8903,-94.0367,1011.3,11111222 
TABS,ioos:station:wmo:42046:1,2010-08-25T10:30:00Z,27.8903,-94.0367,1010.99,11111222 
TABS,ioos:station:wmo:42046:1,2010-08-25T11:00:00Z,27.8903,-94.0367,1011.22,11111222 
TABS,ioos:station:wmo:42046:1,2010-08-25T11:30:00Z,27.8903,-94.0367,1011.87,11111222 
TABS,ioos:station:wmo:42046:1,2010-08-25T12:00:00Z,27.8903,-94.0367,1012.47,11111222 
TABS,ioos:station:wmo:42046:1,2010-08-25T12:30:00Z,27.8903,-94.0367,1012.5,11111222 
TABS,ioos:station:wmo:42046:1,2010-08-25T13:00:00Z,27.8903,-94.0367,1012.72,11111222 
TABS,ioos:station:wmo:42046:1,2010-08-25T13:30:00Z,27.8903,-94.0367,1013.08,11111222 
TABS,ioos:station:wmo:42046:1,2010-08-25T14:00:00Z,27.8903,-94.0367,1013.47,11111222 
TABS,ioos:station:wmo:42046:1,2010-08-25T14:30:00Z,27.8903,-94.0367,1013.55,11111222 